Погода в Фанесе

Греция     36°21′03″N   27°58′50″E
темп.,
°C
ветер,
м/с
пор.,
м/с
влажн.,
%
обл.,
%
осадки,
мм/ч
давл.,
гПа
погр.,
м
11 мая, вт
вт1100:00+16зюз22590 0.0 101126
03:00+15з34740 0.0 101051
06:00+14з33730 0.0 101050
09:00+22з23445 0.0 1010388
12:00+27зсз00315 0.0 10101095
15:00+27с113423 0.0 10101191
18:00+22з44455 0.0 1009555
21:00+15з35740 0.0 101092
12 мая, ср
ср1200:00+14з45810 0.0 1010103
03:00+14з34880 0.0 100889
06:00+14з35900 0.0 1009106
09:00+21з33515 0.0 1009445
12:00+26зюз11350 0.0 10091014
15:00+25ссз22370 0.0 1009949
18:00+22зсз4442100 0.0 1010485
21:00+15з237096 0.0 101055
13 мая, чт
чт1300:00+15з22620 0.0 101128
03:00+15зсз22530 0.0 101013
06:00+14зсз11530 0.0 101012
09:00+23юв11345 0.0 1011548
12:00+25юв34335 0.0 10111226
15:00+25ю343713 0.0 10111169
18:00+22ю226122 0.0 1011743
21:00+16с11902 0.0 101215
14 мая, пт
пт1400:00+15сз11920 0.0 101314
03:00+15ссз11905 0.0 101314
06:00+14сз118817 0.0 101313
09:00+22ююв01431 0.0 1014569
12:00+26зюз12330 0.0 10151200
15:00+27сз12310 0.0 10141117
18:00+23зсз45380 0.0 1015698
21:00+15зсз32800 0.0 101542
15 мая, сб
сб1500:00+15з33820 0.0 101549
03:00+14зсз34850 0.0 101463
06:00+14зсз34850 0.0 101451
09:00+23зсз33425 0.0 1013426
12:00+27зсз33305 0.0 1013921
15:00+28зсз4426100 0.0 1013996
18:00+25з4432100 0.0 1012520
21:00+17з34600 0.0 101247